Location: Virginia Beach
(36.8530°N, 75.9780°W)
Time: 14:43:31
(UTC-04:00)

ISS - Visible Passes

Search period start: 23 May 2018 00:00
Search period end: 02 June 2018 00:00
Orbit: 402 x 407 km, 51.6° (Epoch: 24 May)

Date Brightness Start Highest point End Pass type
(mag) Time Alt. Az. Time Alt. Az. Time Alt. Az.
23 May -0.5 02:28:36 10° N 02:30:27 14° NNE 02:32:19 10° ENE visible
23 May -4.0 04:04:04 10° NW 04:07:20 87° SSW 04:10:35 10° SE visible
23 May -3.6 20:42:09 10° SW 20:45:24 76° NW 20:48:40 10° NE visible
23 May -0.4 22:20:46 10° NW 22:22:21 13° NNW 22:23:57 10° N visible
24 May -0.1 01:37:41 10° NNE 01:37:41 10° NNE 01:37:41 10° NNE visible
24 May0.003:20:19ESE03:20:19ESE03:10:12NWvisible
24 May -0.8 21:27:29 10° WNW 21:29:55 19° NNW 21:32:21 10° NNE visible
26 May -0.4 21:21:09 10° NW 21:22:18 11° NNW 21:23:28 10° N visible
27 May -0.2 00:36:48 10° N 00:36:51 10° N 00:36:51 10° N visible
29 May -0.3 00:27:51 10° NNW 00:28:06 11° NNW 00:28:06 11° NNW visible
29 May -0.7 23:36:11 10° N 23:37:28 13° NNE 23:37:28 13° NNE visible
31 May -0.4 00:19:20 10° NW 00:19:29 11° NNW 00:19:29 11° NNW visible
31 May -1.1 23:27:21 10° NNW 23:28:54 19° N 23:28:54 19° N visible
01 Jun -1.2 22:35:33 10° NNW 22:37:28 15° NNE 22:38:20 13° NE visible
